W5IM Weather Reports


Display with metric or nautical units.
time (UTC)temp
F
wind
direction
speed
MPH
gust
MPH
rain 1hr
in
rain 24hr
in
rain mn
in
humidity
%
barometer
mb
20260510065018 72 171 2.0 3.0 0.00 0.22 0.00 88 1010.2
20260510064517 72 176 3.0 6.0 0.00 0.22 0.00 88 1010.3
20260510063517 72 139 3.0 3.0 0.00 0.22 0.00 86 1010.2
20260510063018 72 192 2.0 3.0 0.00 0.22 0.00 86 1010.1
20260510062518 72 161 3.0 5.0 0.00 0.22 0.00 86 1010.3
20260510062018 73 157 3.0 5.0 0.00 0.22 0.00 86 1010.3
20260510061521 73 157 5.0 6.0 0.00 0.22 0.00 86 1010.3
20260510061017 73 148 4.0 6.0 0.00 0.22 0.00 86 1010.4
20260510060517 73 123 5.0 6.0 0.00 0.22 0.00 86 1010.3
20260510060016 73 161 5.0 7.0 0.00 0.22 0.00 85 1010.2
20260510055518 73 154 5.0 7.0 0.00 0.22 0.00 85 1010.3
20260510055018 73 156 4.0 5.0 0.00 0.22 0.00 83 1010.2
20260510054517 73 190 3.0 6.0 0.00 0.22 0.00 83 1010.1
20260510054017 73 205 5.0 6.0 0.00 0.22 0.00 83 1010.0
20260510053018 74 208 3.0 5.0 0.00 0.22 0.00 83 1010.1
20260510052517 74 156 3.0 5.0 0.00 0.22 0.00 83 1010.1
20260510052018 74 184 3.0 6.0 0.00 0.22 0.00 82 1010.0
20260510051018 74 141 2.0 2.0 0.00 0.22 0.00 82 1010.0
20260510050518 74 158 1.0 3.0 0.00 0.22 0.00 82 1009.9
20260510050017 74 199 3.0 6.0 0.00 0.22 0.00 82 844.7
20260510045517 74 211 5.0 6.0 0.00 0.22 0.22 82 1009.7
20260510045017 75 210 3.0 5.0 0.00 0.22 0.22 81 1009.8
20260510044519 75 188 2.0 5.0 0.00 0.22 0.22 80 1009.7
20260510044017 75 204 3.0 3.0 0.00 0.22 0.22 80 1009.7
20260510043017 76 191 3.0 5.0 0.00 0.22 0.22 79 1009.8
20260510042517 76 199 2.0 6.0 0.00 0.22 0.22 79 1009.8
20260510042018 76 195 3.0 5.0 0.00 0.22 0.22 78 1009.8
20260510040517 76 200 3.0 5.0 0.00 0.22 0.22 78 1009.5
20260510040016 77 184 2.0 6.0 0.00 0.22 0.22 77 1009.5
20260510035517 77 162 5.0 8.0 0.00 0.22 0.22 78 1009.6
20260510035018 77 162 6.0 9.0 0.00 0.22 0.22 77 1009.5
20260510034517 77 162 7.0 9.0 0.00 0.22 0.22 76 1009.5
20260510034017 77 147 8.0 10.0 0.00 0.22 0.22 75 1009.5
20260510033518 77 141 9.0 12.0 0.00 0.22 0.22 74 1009.5
20260510033018 78 157 8.0 12.0 0.00 0.22 0.22 72 1009.4
20260510032517 78 158 6.0 9.0 0.00 0.22 0.22 70 1009.4
20260510031516 78 145 7.0 9.0 0.00 0.22 0.22 70 1009.4
20260510031017 78 135 6.0 9.0 0.00 0.22 0.22 70 1009.3
20260510030517 78 136 7.0 9.0 0.00 0.22 0.22 71 1009.3
20260510030017 78 131 6.0 8.0 0.00 0.22 0.22 71 1009.2
20260510025519 78 135 6.0 9.0 0.00 0.22 0.22 71 1009.1
20260510025017 78 123 6.0 9.0 0.00 0.22 0.22 72 1009.1
20260510024517 78 121 6.0 8.0 0.00 0.22 0.22 73 1009.0
20260510024018 79 133 6.0 8.0 0.00 0.22 0.22 73 1008.8
20260510023517 79 119 5.0 7.0 0.00 0.22 0.22 71 1008.7
20260510023017 79 125 5.0 8.0 0.00 0.22 0.22 70 1008.6
20260510022518 79 129 6.0 8.0 0.00 0.22 0.22 70 1008.6
20260510022017 80 143 6.0 9.0 0.00 0.22 0.22 69 1008.5
20260510021018 80 132 5.0 7.0 0.00 0.22 0.22 65 1008.4
20260510020517 81 146 6.0 9.0 0.00 0.22 0.22 63 1008.2
20260510020017 81 157 7.0 10.0 0.00 0.22 0.22 63 1008.1
20260510015516 81 150 7.0 12.0 0.00 0.22 0.22 62 1008.0
20260510015017 81 140 8.0 12.0 0.00 0.22 0.22 61 1007.8
20260510014516 81 155 8.0 10.0 0.00 0.22 0.22 61 1007.7
20260510013018 82 160 7.0 13.0 0.00 0.22 0.22 60 1007.4
20260510012516 83 161 6.0 13.0 0.00 0.22 0.22 59 1007.4
20260510012017 83 161 8.0 14.0 0.00 0.22 0.22 58 1007.3
20260510011516 83 168 7.0 14.0 0.00 0.22 0.22 58 1007.3
20260510010518 84 154 10.0 16.0 0.00 0.22 0.22 58 1007.3
20260510010017 84 163 9.0 14.0 0.00 0.22 0.22 60 1007.3
20260510005518 84 167 8.0 14.0 0.00 0.22 0.22 60 1007.2
20260510005018 85 158 9.0 14.0 0.00 0.22 0.22 59 1007.2
20260510004517 85 154 9.0 15.0 0.00 0.22 0.22 59 1007.3
20260510004019 85 151 11.0 16.0 0.00 0.22 0.22 59 1007.4
20260510003518 85 152 12.0 16.0 0.00 0.22 0.22 57 1007.3
20260510003018 86 148 12.0 16.0 0.00 0.22 0.22 56 1007.2
20260510002517 86 155 11.0 17.0 0.00 0.22 0.22 56 1007.2
20260510002017 86 153 12.0 20.0 0.00 0.22 0.22 55 1007.2
20260510001517 87 157 12.0 16.0 0.00 0.22 0.22 54 1007.1
20260510001018 87 165 9.0 17.0 0.00 0.22 0.22 53 1007.1
20260510000518 87 173 9.0 18.0 0.00 0.22 0.22 53 1007.2
20260510000018 87 158 12.0 17.0 0.00 0.22 0.22 52 1007.2
20260509235520 88 162 9.0 18.0 0.00 0.22 0.22 52 1007.1
20260509235018 88 152 11.0 17.0 0.00 0.22 0.22 51 1007.0
20260509234517 88 158 10.0 16.0 0.00 0.22 0.22 53 1007.0
20260509234017 88 148 12.0 18.0 0.00 0.22 0.22 51 1007.0
20260509233518 88 160 13.0 18.0 0.00 0.22 0.22 50 1007.0
20260509233018 89 156 13.0 17.0 0.00 0.22 0.22 49 1007.1
20260509232018 90 147 10.0 18.0 0.00 0.22 0.22 48 1007.0
20260509231516 91 151 11.0 17.0 0.00 0.22 0.22 46 1007.0
20260509231018 91 144 9.0 13.0 0.00 0.22 0.22 44 1007.0
20260509230517 92 167 6.0 12.0 0.00 0.22 0.22 43 1007.0
20260509225517 92 191 5.0 9.0 0.00 0.22 0.22 42 1007.0
20260509224517 92 203 9.0 14.0 0.00 0.22 0.22 41 1007.0
20260509224017 92 195 6.0 12.0 0.00 0.22 0.22 41 1007.1
20260509223517 92 166 7.0 9.0 0.00 0.22 0.22 42 1007.0
20260509223017 92 180 4.0 10.0 0.00 0.22 0.22 42 1007.0
20260509222517 92 186 4.0 8.0 0.00 0.22 0.22 43 1007.0
20260509222017 92 192 6.0 10.0 0.00 0.22 0.22 42 1006.9
20260509221017 92 215 6.0 10.0 0.00 0.22 0.22 41 1007.0
20260509220517 92 161 6.0 12.0 0.00 0.22 0.22 42 1007.0
20260509220016 92 201 8.0 12.0 0.00 0.22 0.22 40 1007.0
20260509215517 92 209 5.0 9.0 0.00 0.22 0.22 42 1006.9
20260509215017 92 216 3.0 7.0 0.00 0.22 0.22 41 1006.9
20260509214516 92 161 4.0 7.0 0.00 0.22 0.22 41 1006.9
20260509214017 92 221 6.0 9.0 0.00 0.22 0.22 39 1007.0
20260509213517 92 198 3.0 8.0 0.00 0.22 0.22 42 1006.9
20260509213018 92 203 6.0 9.0 0.00 0.22 0.22 41 1007.0
20260509212516 92 181 4.0 9.0 0.00 0.22 0.22 42 1007.0
20260509212017 91 202 5.0 9.0 0.00 0.22 0.22 43 1007.0
20260509211516 91 194 3.0 9.0 0.00 0.22 0.22 43 1007.0
20260509211017 91 193 3.0 8.0 0.00 0.22 0.22 43 1007.0
20260509210517 91 224 6.0 10.0 0.00 0.22 0.22 41 1007.1
20260509210016 91 198 6.0 9.0 0.00 0.22 0.22 40 1007.1
20260509205517 91 202 4.0 8.0 0.00 0.22 0.22 44 1007.1
20260509205017 91 189 5.0 8.0 0.00 0.22 0.22 44 1007.2
20260509204018 91 257 4.0 10.0 0.00 0.22 0.22 42 1007.3
20260509203516 91 194 5.0 9.0 0.00 0.22 0.22 43 1007.4
20260509203017 91 215 3.0 9.0 0.00 0.22 0.22 43 1007.4
20260509202516 90 244 2.0 8.0 0.00 0.22 0.22 44 1007.5
20260509202017 90 195 6.0 10.0 0.00 0.22 0.22 43 1007.6
20260509201517 91 162 6.0 9.0 0.00 0.22 0.22 44 1007.6
20260509200517 90 177 6.0 9.0 0.00 0.22 0.22 46 1007.6
20260509200017 90 188 7.0 12.0 0.00 0.22 0.22 45 1007.7
20260509195517 90 233 6.0 10.0 0.00 0.22 0.22 45 1007.7
20260509195018 90 221 6.0 9.0 0.00 0.22 0.22 46 1007.8
20260509194517 90 218 4.0 9.0 0.00 0.22 0.22 46 1007.9
20260509194017 90 239 4.0 10.0 0.00 0.22 0.22 45 1007.8
20260509193016 90 203 5.0 9.0 0.00 0.22 0.22 45 1007.9
20260509192516 90 169 6.0 9.0 0.00 0.22 0.22 45 1008.0
20260509192018 89 335 3.0 7.0 0.00 0.22 0.22 43 1008.0
20260509191516 89 221 3.0 9.0 0.00 0.22 0.22 46 1008.0
20260509191018 89 279 6.0 10.0 0.00 0.22 0.22 46 1008.2
20260509190517 89 230 6.0 10.0 0.00 0.22 0.22 48 1008.2
20260509190016 89 354 3.0 8.0 0.00 0.22 0.22 48 1008.3
20260509184518 88 239 5.0 9.0 0.00 0.22 0.22 50 1008.6
20260509184018 88 220 2.0 8.0 0.00 0.22 0.22 52 1008.7
20260509183518 87 242 2.0 9.0 0.00 0.22 0.22 54 1008.7
20260509183018 87 224 7.0 9.0 0.00 0.22 0.22 52 1008.8
20260509182519 87 248 4.0 9.0 0.00 0.22 0.22 53 1008.9
20260509182018 87 251 8.0 10.0 0.00 0.22 0.22 51 1008.9
20260509181518 87 286 4.0 8.0 0.00 0.22 0.22 55 1008.9
20260509180516 86 287 2.0 6.0 0.00 0.22 0.22 56 1009.1
20260509180016 86 241 5.0 9.0 0.00 0.22 0.22 56 1009.1
20260509175516 86 304 6.0 12.0 0.00 0.22 0.22 58 1009.1
20260509175017 85 250 5.0 9.0 0.00 0.22 0.22 58 1009.1
20260509174517 85 250 9.0 13.0 0.00 0.22 0.22 58 1009.1
20260509174016 85 240 6.0 10.0 0.00 0.22 0.22 60 1008.9
20260509173517 84 241 7.0 12.0 0.00 0.22 0.22 61 1008.9
20260509173016 84 246 6.0 12.0 0.00 0.22 0.22 61 1008.9
20260509172517 84 231 7.0 13.0 0.00 0.22 0.22 63 1009.1
20260509172017 83 250 8.0 13.0 0.00 0.22 0.22 63 1009.1
20260509171516 83 246 7.0 13.0 0.00 0.22 0.22 62 1009.0
20260509171018 83 224 8.0 13.0 0.00 0.22 0.22 64 1009.0
20260509170519 83 250 8.0 12.0 0.00 0.22 0.22 64 1009.0
20260509170017 82 229 6.0 10.0 0.00 0.22 0.22 66 1009.0
20260509165516 82 256 7.0 12.0 0.00 0.22 0.22 66 1009.1
20260509165017 82 236 6.0 8.0 0.00 0.22 0.22 68 1009.0
20260509164517 82 255 7.0 12.0 0.00 0.22 0.22 68 1009.2
20260509164016 82 254 7.0 10.0 0.00 0.22 0.22 68 1009.2
20260509163517 82 250 5.0 10.0 0.00 0.22 0.22 68 1009.3
20260509163017 82 236 5.0 9.0 0.00 0.22 0.22 68 1009.3
20260509162017 82 204 5.0 9.0 0.00 0.22 0.22 66 1009.4
20260509161017 81 219 5.0 8.0 0.00 0.22 0.22 65 1009.4
20260509160517 81 268 2.0 8.0 0.00 0.22 0.22 69 1009.4
20260509155017 81 256 2.0 5.0 0.00 0.22 0.22 70 1009.6
20260509154516 81 3 1.0 3.0 0.00 0.22 0.22 70 1009.8
20260509154017 81 334 3.0 6.0 0.00 0.22 0.22 72 1009.9
20260509153516 80 319 5.0 8.0 0.00 0.22 0.22 71 1009.9
20260509153019 80 338 5.0 9.0 0.00 0.22 0.22 72 1009.8
20260509152516 80 342 6.0 9.0 0.00 0.22 0.22 72 1009.9
20260509152016 80 352 5.0 8.0 0.00 0.22 0.22 72 1009.9
20260509151516 80 338 3.0 7.0 0.00 0.22 0.22 73 1009.8
20260509151017 80 4 5.0 7.0 0.00 0.22 0.22 73 1009.8
20260509150517 80 59 3.0 5.0 0.00 0.22 0.22 73 1009.9
20260509145518 80 349 1.0 2.0 0.00 0.22 0.22 73 1009.9
20260509144518 79 340 2.0 3.0 0.00 0.22 0.22 74 1009.9
20260509144018 79 197 1.0 3.0 0.00 0.22 0.22 75 1010.0
20260509143018 78 63 3.0 5.0 0.00 0.22 0.22 78 1009.6
20260509142518 78 51 2.0 5.0 0.00 0.22 0.22 78 1009.6
20260509142019 77 46 2.0 5.0 0.00 0.22 0.22 78 1009.6
20260509141517 77 10 2.0 3.0 0.00 0.22 0.22 80 1009.6
20260509141018 77 51 2.0 3.0 0.00 0.22 0.22 80 1009.7
20260509140518 77 105 1.0 3.0 0.00 0.22 0.22 81 1009.7
20260509140017 76 131 1.0 3.0 0.00 0.22 0.22 84 1009.8
20260509135518 75 158 1.0 3.0 0.00 0.22 0.22 85 1009.7
20260509135019 75 170 1.0 2.0 0.00 0.22 0.22 86 1009.6
20260509134518 74 176 0.0 2.0 0.00 0.22 0.22 86 1009.7
20260509133516 74 189 2.0 5.0 0.00 0.22 0.22 86 1009.9
20260509133017 74 192 3.0 6.0 0.00 0.22 0.22 86 1010.0
20260509132516 74 205 2.0 3.0 0.00 0.22 0.22 86 1010.0
20260509132017 74 201 2.0 3.0 0.00 0.22 0.22 87 1010.0
20260509131516 74 206 2.0 3.0 0.00 0.22 0.22 88 1010.0
20260509131016 74 187 3.0 5.0 0.00 0.22 0.22 88 1010.1
20260509130517 74 197 3.0 6.0 0.00 0.22 0.22 89 1010.0
20260509130016 75 215 5.0 7.0 0.00 0.22 0.22 89 1009.9
20260509125518 75 221 5.0 8.0 0.00 0.22 0.22 90 1009.8
20260509125017 75 236 1.0 6.0 0.00 0.22 0.22 91 1009.7
20260509124516 75 149 2.0 6.0 0.00 0.22 0.22 91 1009.7
20260509124017 75 172 3.0 8.0 0.00 0.22 0.22 91 1009.5
20260509123517 75 144 7.0 12.0 0.00 0.22 0.22 92 1009.3
20260509123017 75 143 6.0 12.0 0.00 0.22 0.22 92 1009.2
20260509122516 76 160 2.0 6.0 0.00 0.22 0.22 92 1009.2
20260509122017 76 180 2.0 8.0 0.00 0.22 0.22 92 1009.2
20260509121516 76 178 7.0 10.0 0.00 0.22 0.22 92 1008.9
20260509121017 75 157 8.0 12.0 0.01 0.22 0.22 92 1008.6
20260509120517 75 147 7.0 13.0 0.01 0.22 0.22 91 1008.4
20260509120016 75 142 8.0 13.0 0.02 0.22 0.22 91 1008.1
20260509115516 76 120 9.0 15.0 0.03 0.22 0.22 91 1007.8
20260509115016 75 148 9.0 15.0 0.04 0.22 0.22 89 1008.0
20260509114516 75 152 9.0 15.0 0.05 0.22 0.22 88 1007.7
20260509114016 75 147 8.0 14.0 0.06 0.22 0.22 87 1007.3
20260509113516 75 147 10.0 16.0 0.06 0.22 0.22 90 1006.8
20260509113017 75 130 14.0 22.0 0.08 0.22 0.22 93 1006.4
20260509112516 75 134 17.0 25.0 0.09 0.22 0.22 94 1005.9
20260509112016 75 135 18.0 28.0 0.11 0.22 0.22 93 1006.0
20260509111016 75 148 19.0 29.0 0.13 0.21 0.21 94 1006.4
20260509110517 75 152 20.0 29.0 0.14 0.21 0.21 94 1006.1
20260509110016 75 137 18.0 25.0 0.14 0.20 0.20 94 1007.1
20260509105516 75 158 16.0 28.0 0.15 0.19 0.19 95 1007.7
20260509105016 75 146 19.0 28.0 0.15 0.18 0.18 95 1007.7
20260509104016 75 138 18.0 24.0 0.14 0.16 0.16 95 1007.6
20260509103516 75 140 16.0 22.0 0.15 0.16 0.16 95 1008.4
20260509103016 76 129 10.0 14.0 0.13 0.14 0.14 94 1008.9
20260509102516 76 130 9.0 12.0 0.13 0.13 0.13 94 1009.4
20260509102016 76 154 7.0 9.0 0.11 0.11 0.11 94 1009.8
20260509101516 76 164 6.0 10.0 0.10 0.10 0.10 94 1009.7
20260509100517 76 147 5.0 8.0 0.07 0.07 0.07 93 1009.5
20260509100016 76 150 6.0 8.0 0.06 0.06 0.06 93 1009.5
20260509095516 76 185 3.0 5.0 0.04 0.04 0.04 93 1009.6
20260509095016 76 228 3.0 6.0 0.03 0.03 0.03 93 1009.5
20260509094517 76 212 4.0 6.0 0.02 0.02 0.02 93 1009.1
20260509094021 76 204 3.0 6.0 0.02 0.02 0.02 93 1008.7
20260509093516 76 137 5.0 7.0 0.01 0.01 0.01 93 1008.5
20260509093016 76 130 5.0 8.0 0.01 0.01 0.01 93 1008.5
20260509092016 76 141 6.0 8.0 0.00 0.00 0.00 93 1008.5
20260509091016 76 120 6.0 8.0 0.00 0.00 0.00 93 1008.7
20260509090516 76 134 7.0 12.0 0.00 0.00 0.00 93 1008.5
20260509090017 76 128 7.0 10.0 0.00 0.00 0.00 92 1008.6
20260509085516 76 116 5.0 7.0 0.00 0.00 0.00 92 1008.6
20260509085016 76 100 4.0 7.0 0.00 0.00 0.00 92 1008.7
20260509084516 76 71 4.0 6.0 0.00 0.00 0.00 92 1008.7
20260509084016 76 56 4.0 6.0 0.00 0.00 0.00 92 1008.6
20260509083517 76 43 5.0 6.0 0.00 0.00 0.00 91 1008.6
20260509083016 76 16 5.0 6.0 0.00 0.00 0.00 91 1008.6
20260509082516 76 12 3.0 6.0 0.00 0.00 0.00 91 1008.4
20260509082017 76 44 5.0 6.0 0.00 0.00 0.00 91 1008.3
20260509081516 76 47 4.0 6.0 0.00 0.00 0.00 91 1008.5
20260509081016 77 10 5.0 8.0 0.00 0.00 0.00 91 1008.3
20260509080516 76 67 6.0 8.0 0.00 0.00 0.00 92 1008.2
20260509080016 76 57 3.0 7.0 0.00 0.00 0.00 92 1008.3
20260509075516 76 85 5.0 8.0 0.00 0.00 0.00 92 1008.2
20260509075016 76 95 6.0 8.0 0.00 0.00 0.00 92 1008.2
20260509074516 76 68 5.0 7.0 0.00 0.00 0.00 92 1008.3
20260509074016 76 46 6.0 8.0 0.00 0.00 0.00 92 1008.2
20260509073516 76 45 7.0 10.0 0.00 0.00 0.00 92 1008.2
20260509073016 76 13 7.0 10.0 0.00 0.00 0.00 91 1008.2
20260509072516 76 9 6.0 8.0 0.00 0.00 0.00 91 1008.1
20260509071515 76 120 6.0 10.0 0.00 0.00 0.00 91 1007.7
20260509071016 76 118 7.0 10.0 0.00 0.00 0.00 91 1007.8
20260509070516 76 130 7.0 8.0 0.00 0.00 0.00 91 1008.0
20260509070015 76 114 6.0 9.0 0.00 0.00 0.00 91 1007.8
20260509065516 76 112 7.0 9.0 0.00 0.00 0.00 91 1007.9